Volver al catálogo

LEMUR-2-ALEX-FULTON

ActivoRadioaficionadoSSO
NORAD 69905·PAYLOAD·🇺🇸 United States

Lanzado Jul 7, 2026 desde Vandenberg Space Force Base

Loading…

Próximos Pases (próximas 24 horas)

TLE

ActualizadoSource: Space-Track

Época: Sep 14, 2026, 10:59 UTC

1 69905U 26156AN  26257.45796742  .00003010  00000-0  30730-3 0  9995
2 69905  97.7486 156.7209 0001910 281.7352  78.3652 14.91354865 10302

Sigue LEMUR-2-ALEX-FULTON en tiempo real con AllMySat

Download on the App Store